RYR5R EGSS-LEAM

Flight info

Callsign RYR5R
Flight time 2h 22m
Altitude 36000
Route NUGBO M183 SILVA Q41 SAM N63 LELNA DCT NOVAN DCT NENEM P152 PPN N10 CJN L27 BLN N865 ESILA
Aircraft B738/M-SDE3FGILRWY/SB1

Departure

Time 2026-04-16 12:18
Airport London Stansted Airport (EGSS)

Arrival

Time 2026-04-16 14:40
Airport Almería Airport (LEAM)
Time Latitude Longitude Altitude Speed Heading
2026-04-16 11:38 51.89213 0.26002 357 ft 0 kts 43°
2026-04-16 11:57 51.89212 0.26002 348 ft 0 kts 43°
2026-04-16 12:07 51.89209 0.25996 348 ft 2 kts 44°
2026-04-16 12:07 51.89197 0.25978 358 ft 2 kts 44°
2026-04-16 12:08 51.89183 0.25963 353 ft 2 kts
2026-04-16 12:08 51.89167 0.25968 351 ft 2 kts 328°
2026-04-16 12:08 51.89159 0.25977 348 ft 1 kts 316°
2026-04-16 12:11 51.89162 0.25973 351 ft 2 kts 316°
2026-04-16 12:12 51.89187 0.25931 352 ft 8 kts 313°
2026-04-16 12:12 51.89236 0.25844 348 ft 13 kts 313°
2026-04-16 12:12 51.89302 0.25729 348 ft 14 kts 313°
2026-04-16 12:12 51.89352 0.25640 348 ft 7 kts 311°
2026-04-16 12:13 51.89366 0.25606 348 ft 0 kts 299°
2026-04-16 12:13 51.89370 0.25596 348 ft 2 kts 299°
2026-04-16 12:13 51.89378 0.25572 352 ft 3 kts 298°
2026-04-16 12:14 51.89392 0.25532 352 ft 5 kts 302°
2026-04-16 12:14 51.89415 0.25467 351 ft 7 kts 285°
2026-04-16 12:14 51.89412 0.25387 348 ft 7 kts 268°
2026-04-16 12:14 51.89427 0.25330 349 ft 3 kts 307°
2026-04-16 12:15 51.89440 0.25303 355 ft 3 kts 311°
2026-04-16 12:15 51.89445 0.25295 353 ft 0 kts 311°
2026-04-16 12:15 51.89448 0.25290 352 ft 2 kts 311°
2026-04-16 12:16 51.89465 0.25258 346 ft 4 kts 312°
2026-04-16 12:16 51.89481 0.25228 345 ft 4 kts 306°
2026-04-16 12:16 51.89494 0.25176 343 ft 7 kts 282°
2026-04-16 12:16 51.89495 0.25093 342 ft 8 kts 268°
2026-04-16 12:17 51.89492 0.24997 336 ft 9 kts 263°
2026-04-16 12:17 51.89448 0.24903 337 ft 14 kts 222°
2026-04-16 12:17 51.89220 0.24559 338 ft 81 kts 223°
2026-04-16 12:17 51.88646 0.23698 339 ft 142 kts 223°
2026-04-16 12:18 51.87868 0.22531 845 ft 158 kts 223°
2026-04-16 12:18 51.87032 0.21341 1724 ft 165 kts 223°
2026-04-16 12:18 51.86122 0.19967 2121 ft 193 kts 225°
2026-04-16 12:18 51.85113 0.18422 2696 ft 202 kts 225°
2026-04-16 12:19 51.84097 0.16878 3443 ft 204 kts 225°
2026-04-16 12:19 51.83449 0.15679 3733 ft 216 kts 242°
2026-04-16 12:19 51.83129 0.13594 4038 ft 239 kts 273°
2026-04-16 12:19 51.83760 0.11055 4779 ft 256 kts 309°
2026-04-16 12:20 51.85288 0.09541 5638 ft 268 kts 339°
2026-04-16 12:20 51.87179 0.08904 6096 ft 281 kts 350°
2026-04-16 12:20 51.89106 0.08591 6448 ft 281 kts 350°
2026-04-16 12:20 51.91050 0.08218 6693 ft 281 kts 349°
2026-04-16 12:21 51.92983 0.07790 6925 ft 278 kts 348°
2026-04-16 12:21 51.94906 0.07302 7420 ft 282 kts 347°
2026-04-16 12:21 51.96814 0.06598 8257 ft 279 kts 330°
2026-04-16 12:21 51.98226 0.04609 9012 ft 271 kts 296°
2026-04-16 12:22 51.98812 0.01730 9818 ft 268 kts 272°
2026-04-16 12:22 51.98625 -0.01134 10491 ft 271 kts 251°
2026-04-16 12:22 51.97662 -0.03895 10701 ft 296 kts 229°
2026-04-16 12:22 51.96104 -0.06254 10925 ft 319 kts 222°
2026-04-16 12:23 51.94348 -0.08575 11395 ft 330 kts 220°
2026-04-16 12:23 51.92538 -0.10887 12140 ft 333 kts 220°
2026-04-16 12:23 51.90713 -0.13209 12687 ft 337 kts 221°
2026-04-16 12:23 51.88863 -0.15574 13201 ft 338 kts 221°
2026-04-16 12:24 51.87637 -0.17151 13482 ft 341 kts 221°
2026-04-16 12:24 51.85768 -0.19565 13755 ft 342 kts 221°
2026-04-16 12:24 51.83305 -0.22757 14084 ft 342 kts 221°
2026-04-16 12:24 51.81450 -0.25166 14115 ft 342 kts 221°
2026-04-16 12:25 51.79586 -0.27590 14116 ft 347 kts 221°
2026-04-16 12:25 51.78334 -0.29219 14432 ft 350 kts 221°
2026-04-16 12:25 51.76443 -0.31678 15260 ft 347 kts 221°
2026-04-16 12:25 51.74688 -0.33956 15944 ft 348 kts 222°
2026-04-16 12:26 51.72784 -0.36428 16573 ft 352 kts 222°
2026-04-16 12:26 51.70882 -0.38895 17185 ft 356 kts 222°
2026-04-16 12:26 51.68935 -0.41418 17812 ft 360 kts 222°
2026-04-16 12:26 51.66971 -0.43958 18462 ft 363 kts 222°
2026-04-16 12:27 51.64990 -0.46519 19086 ft 365 kts 222°
2026-04-16 12:27 51.62992 -0.49026 19663 ft 369 kts 217°
2026-04-16 12:27 51.60694 -0.50927 20272 ft 375 kts 204°
2026-04-16 12:27 51.58159 -0.52076 20869 ft 382 kts 194°
2026-04-16 12:28 51.55492 -0.52594 21400 ft 387 kts 191°
2026-04-16 12:28 51.52823 -0.53001 21891 ft 391 kts 190°
2026-04-16 12:28 51.50086 -0.53395 22405 ft 394 kts 190°
2026-04-16 12:28 51.47346 -0.53789 22918 ft 397 kts 190°
2026-04-16 12:29 51.44568 -0.54197 23416 ft 400 kts 191°
2026-04-16 12:29 51.41795 -0.54614 23858 ft 403 kts 191°
2026-04-16 12:29 51.38987 -0.55044 24264 ft 406 kts 191°
2026-04-16 12:29 51.36184 -0.55478 24678 ft 408 kts 191°
2026-04-16 12:30 51.33883 -0.55836 25003 ft 409 kts 191°
2026-04-16 12:30 51.31036 -0.56281 25398 ft 412 kts 192°
2026-04-16 12:30 51.28172 -0.56730 25774 ft 414 kts 192°
2026-04-16 12:30 51.25290 -0.57181 26142 ft 417 kts 192°
2026-04-16 12:31 51.22386 -0.57635 26520 ft 419 kts 192°
2026-04-16 12:31 51.19470 -0.58091 26885 ft 422 kts 192°
2026-04-16 12:31 51.16535 -0.58549 27236 ft 424 kts 192°
2026-04-16 12:31 51.13590 -0.59008 27583 ft 427 kts 192°
2026-04-16 12:32 51.10624 -0.59469 27927 ft 429 kts 193°
2026-04-16 12:32 51.07648 -0.59931 28272 ft 431 kts 193°
2026-04-16 12:32 51.04655 -0.60395 28606 ft 433 kts 193°
2026-04-16 12:32 51.01636 -0.60863 28938 ft 436 kts 193°
2026-04-16 12:33 50.98630 -0.61328 29240 ft 438 kts 193°
2026-04-16 12:33 50.95622 -0.61793 29548 ft 440 kts 193°
2026-04-16 12:33 50.92557 -0.62266 29857 ft 442 kts 193°
2026-04-16 12:33 50.89484 -0.62739 30142 ft 444 kts 193°
2026-04-16 12:34 50.86395 -0.63214 30424 ft 445 kts 193°
2026-04-16 12:34 50.83337 -0.63682 30752 ft 445 kts 193°
2026-04-16 12:34 50.80258 -0.64150 31161 ft 442 kts 193°
2026-04-16 12:34 50.77199 -0.64615 31547 ft 440 kts 193°
2026-04-16 12:35 50.74134 -0.65082 31865 ft 440 kts 194°
2026-04-16 12:35 50.71117 -0.65543 32169 ft 439 kts 194°
2026-04-16 12:35 50.68080 -0.66007 32509 ft 438 kts 194°
2026-04-16 12:35 50.65048 -0.66469 32852 ft 437 kts 194°
2026-04-16 12:36 50.62018 -0.66930 33169 ft 436 kts 194°
2026-04-16 12:36 50.59001 -0.67389 33477 ft 435 kts 194°
2026-04-16 12:36 50.56020 -0.67842 33805 ft 434 kts 194°
2026-04-16 12:36 50.53011 -0.68298 34123 ft 433 kts 194°
2026-04-16 12:37 50.50007 -0.68754 34361 ft 433 kts 194°
2026-04-16 12:37 50.47031 -0.69205 34570 ft 433 kts 194°
2026-04-16 12:37 50.44037 -0.69658 34812 ft 432 kts 194°
2026-04-16 12:37 50.41043 -0.70110 35056 ft 431 kts 193°
2026-04-16 12:38 50.38049 -0.70561 35272 ft 431 kts 193°
2026-04-16 12:38 50.35058 -0.71012 35474 ft 431 kts 193°
2026-04-16 12:38 50.32057 -0.71463 35708 ft 430 kts 193°
2026-04-16 12:38 50.29118 -0.71904 35943 ft 429 kts 193°
2026-04-16 12:39 50.26136 -0.72351 36139 ft 429 kts 193°
2026-04-16 12:39 50.23158 -0.72797 36323 ft 430 kts 193°
2026-04-16 12:39 50.20168 -0.73245 36539 ft 429 kts 193°
2026-04-16 12:39 50.17200 -0.73688 36749 ft 428 kts 193°
2026-04-16 12:40 50.14270 -0.74125 36934 ft 428 kts 193°
2026-04-16 12:40 50.11301 -0.74568 37115 ft 428 kts 193°
2026-04-16 12:40 50.08332 -0.75010 37224 ft 429 kts 193°
2026-04-16 12:40 50.05348 -0.75456 37213 ft 431 kts 193°
2026-04-16 12:41 49.99383 -0.76340 37208 ft 428 kts 193°
2026-04-16 12:41 49.93504 -0.77206 37211 ft 424 kts 193°
2026-04-16 12:42 49.87628 -0.78072 37215 ft 422 kts 193°
2026-04-16 12:42 49.81820 -0.78929 37218 ft 420 kts 192°
2026-04-16 12:43 49.75980 -0.79789 37227 ft 420 kts 192°
2026-04-16 12:43 49.70169 -0.80643 37228 ft 422 kts 192°
2026-04-16 12:44 49.64300 -0.81503 37224 ft 424 kts 192°
2026-04-16 12:44 49.58430 -0.82360 37220 ft 426 kts 192°
2026-04-16 12:45 49.52505 -0.83223 37218 ft 428 kts 192°
2026-04-16 12:45 49.46551 -0.84087 37222 ft 430 kts 192°
2026-04-16 12:46 49.40607 -0.84947 37220 ft 432 kts 192°
2026-04-16 12:46 49.34600 -0.85814 37218 ft 432 kts 192°
2026-04-16 12:47 49.28632 -0.86672 37223 ft 432 kts 192°
2026-04-16 12:47 49.22640 -0.87533 37216 ft 431 kts 192°
2026-04-16 12:48 49.16676 -0.88387 37217 ft 430 kts 191°
2026-04-16 12:48 49.10728 -0.89237 37220 ft 428 kts 191°
2026-04-16 12:49 49.04833 -0.90078 37221 ft 426 kts 191°
2026-04-16 12:49 48.98935 -0.90918 37221 ft 425 kts 191°
2026-04-16 12:50 48.93041 -0.91755 37225 ft 423 kts 191°
2026-04-16 12:50 48.87171 -0.92588 37226 ft 422 kts 191°
2026-04-16 12:51 48.81346 -0.93412 37224 ft 422 kts 191°
2026-04-16 12:51 48.75478 -0.94240 37232 ft 423 kts 191°
2026-04-16 12:52 48.69638 -0.95063 37227 ft 423 kts 191°
2026-04-16 12:52 48.63746 -0.95891 37232 ft 424 kts 191°
2026-04-16 12:53 48.57855 -0.96716 37231 ft 425 kts 191°
2026-04-16 12:53 48.51986 -0.97536 37233 ft 426 kts 191°
2026-04-16 12:54 48.46063 -0.98361 37237 ft 427 kts 191°
2026-04-16 12:54 48.40157 -0.99183 37237 ft 428 kts 191°
2026-04-16 12:55 48.34211 -1.00008 37236 ft 428 kts 191°
2026-04-16 12:55 48.28268 -1.00830 37234 ft 428 kts 191°
2026-04-16 12:56 48.22339 -1.01648 37235 ft 428 kts 191°
2026-04-16 12:56 48.16430 -1.02462 37241 ft 428 kts 191°
2026-04-16 12:57 48.10491 -1.03278 37240 ft 428 kts 191°
2026-04-16 12:57 48.04548 -1.04094 37241 ft 428 kts 191°
2026-04-16 12:58 47.98601 -1.04907 37236 ft 428 kts 191°
2026-04-16 12:58 47.92691 -1.05714 37241 ft 427 kts 191°
2026-04-16 12:59 47.86765 -1.06521 37244 ft 427 kts 191°
2026-04-16 13:00 47.77923 -1.07721 37251 ft 426 kts 191°
2026-04-16 13:00 47.72008 -1.08523 37240 ft 426 kts 191°
2026-04-16 13:01 47.66136 -1.09316 37246 ft 425 kts 191°
2026-04-16 13:01 47.60243 -1.10110 37259 ft 425 kts 191°
2026-04-16 13:02 47.54342 -1.10904 37241 ft 425 kts 191°
2026-04-16 13:02 47.48472 -1.11692 37261 ft 425 kts 191°
2026-04-16 13:03 47.42573 -1.12482 37250 ft 425 kts 190°
2026-04-16 13:03 47.36705 -1.13266 37252 ft 425 kts 190°
2026-04-16 13:04 47.30788 -1.14055 37253 ft 425 kts 190°
2026-04-16 13:04 47.24919 -1.14836 37253 ft 426 kts 190°
2026-04-16 13:05 47.19004 -1.15621 37250 ft 426 kts 190°
2026-04-16 13:05 47.13118 -1.16400 37250 ft 426 kts 190°
2026-04-16 13:06 47.07189 -1.17184 37249 ft 427 kts 190°
2026-04-16 13:06 47.01260 -1.17965 37254 ft 427 kts 190°
2026-04-16 13:07 46.95374 -1.18739 37254 ft 427 kts 190°
2026-04-16 13:07 46.89430 -1.19519 37257 ft 427 kts 190°
2026-04-16 13:08 46.84497 -1.20165 37266 ft 427 kts 190°
2026-04-16 13:08 46.78562 -1.20941 37254 ft 427 kts 190°
2026-04-16 13:09 46.72669 -1.21709 37262 ft 427 kts 189°
2026-04-16 13:09 46.66727 -1.22482 37261 ft 427 kts 189°
2026-04-16 13:10 46.60815 -1.23250 37265 ft 426 kts 189°
2026-04-16 13:10 46.54935 -1.24012 37259 ft 426 kts 189°
2026-04-16 13:11 46.49040 -1.24774 37254 ft 426 kts 189°
2026-04-16 13:11 46.43118 -1.25538 37265 ft 426 kts 189°
2026-04-16 13:12 46.37210 -1.26298 37263 ft 426 kts 189°
2026-04-16 13:12 46.31305 -1.27057 37270 ft 425 kts 189°
2026-04-16 13:13 46.25433 -1.27809 37252 ft 426 kts 189°
2026-04-16 13:13 46.19527 -1.28565 37254 ft 425 kts 189°
2026-04-16 13:14 46.13775 -1.29298 37267 ft 425 kts 189°
2026-04-16 13:14 46.07906 -1.30046 37268 ft 425 kts 189°
2026-04-16 13:15 46.02007 -1.30796 37269 ft 425 kts 189°
2026-04-16 13:15 45.96089 -1.31546 37275 ft 426 kts 189°
2026-04-16 13:16 45.90213 -1.32290 37267 ft 426 kts 189°
2026-04-16 13:16 45.84292 -1.33037 37270 ft 426 kts 189°
2026-04-16 13:17 45.78375 -1.33782 37271 ft 426 kts 189°
2026-04-16 13:17 45.72476 -1.34524 37267 ft 427 kts 189°
2026-04-16 13:18 45.66547 -1.35268 37268 ft 427 kts 189°
2026-04-16 13:18 45.60618 -1.36010 37262 ft 427 kts 189°
2026-04-16 13:19 45.54715 -1.36747 37263 ft 427 kts 189°
2026-04-16 13:19 45.48780 -1.37487 37261 ft 427 kts 189°
2026-04-16 13:20 45.42881 -1.38221 37257 ft 427 kts 189°
2026-04-16 13:20 45.36945 -1.38958 37256 ft 427 kts 188°
2026-04-16 13:21 45.31049 -1.39688 37255 ft 428 kts 188°
2026-04-16 13:21 45.25095 -1.40424 37252 ft 428 kts 188°
2026-04-16 13:22 45.19184 -1.41153 37250 ft 428 kts 188°
2026-04-16 13:22 45.13224 -1.41887 37245 ft 428 kts 188°
2026-04-16 13:23 45.07284 -1.42617 37243 ft 428 kts 188°
2026-04-16 13:23 45.01368 -1.43342 37240 ft 428 kts 188°
2026-04-16 13:24 44.95413 -1.44070 37237 ft 428 kts 188°
2026-04-16 13:24 44.89507 -1.44791 37231 ft 429 kts 188°
2026-04-16 13:25 44.83544 -1.45518 37231 ft 429 kts 188°
2026-04-16 13:25 44.77585 -1.46242 37225 ft 429 kts 188°
2026-04-16 13:26 44.71667 -1.46960 37220 ft 429 kts 188°
2026-04-16 13:26 44.65702 -1.47682 37216 ft 429 kts 188°
2026-04-16 13:27 44.59734 -1.48403 37212 ft 430 kts 188°
2026-04-16 13:27 44.53764 -1.49123 37212 ft 430 kts 188°
2026-04-16 13:28 44.47821 -1.49838 37212 ft 430 kts 188°
2026-04-16 13:28 44.41839 -1.50556 37209 ft 430 kts 188°
2026-04-16 13:29 44.35903 -1.51268 37210 ft 431 kts 188°
2026-04-16 13:29 44.29913 -1.51984 37207 ft 431 kts 188°
2026-04-16 13:30 44.23956 -1.52695 37204 ft 431 kts 188°
2026-04-16 13:30 44.17972 -1.53408 37201 ft 432 kts 188°
2026-04-16 13:31 44.11972 -1.54121 37202 ft 432 kts 188°
2026-04-16 13:31 44.05973 -1.54832 37197 ft 432 kts 188°
2026-04-16 13:32 43.99990 -1.55541 37196 ft 432 kts 188°
2026-04-16 13:32 43.93998 -1.56248 37195 ft 433 kts 188°
2026-04-16 13:33 43.87979 -1.56958 37195 ft 433 kts 188°
2026-04-16 13:33 43.81990 -1.57663 37198 ft 433 kts 188°
2026-04-16 13:34 43.75960 -1.58371 37191 ft 433 kts 188°
2026-04-16 13:34 43.69974 -1.59072 37193 ft 434 kts 188°
2026-04-16 13:35 43.63947 -1.59777 37185 ft 434 kts 188°
2026-04-16 13:35 43.57927 -1.60480 37189 ft 434 kts 188°
2026-04-16 13:36 43.51929 -1.61178 37187 ft 434 kts 188°
2026-04-16 13:36 43.45900 -1.61879 37185 ft 434 kts 188°
2026-04-16 13:37 43.39885 -1.62577 37189 ft 435 kts 188°
2026-04-16 13:37 43.33848 -1.63276 37186 ft 435 kts 188°
2026-04-16 13:38 43.27784 -1.63976 37189 ft 436 kts 188°
2026-04-16 13:38 43.21717 -1.64676 37179 ft 437 kts 188°
2026-04-16 13:39 43.15688 -1.65370 37194 ft 437 kts 188°
2026-04-16 13:39 43.09599 -1.66070 37191 ft 438 kts 188°
2026-04-16 13:40 43.03549 -1.66763 37186 ft 439 kts 188°
2026-04-16 13:40 42.97460 -1.67460 37184 ft 439 kts 188°
2026-04-16 13:41 42.91364 -1.68155 37177 ft 438 kts 188°
2026-04-16 13:41 42.85310 -1.68846 37186 ft 437 kts 188°
2026-04-16 13:42 42.79241 -1.69536 37180 ft 437 kts 188°
2026-04-16 13:42 42.73181 -1.70224 37183 ft 436 kts 187°
2026-04-16 13:43 42.67115 -1.70745 37176 ft 437 kts 186°
2026-04-16 13:43 42.61081 -1.71163 37185 ft 437 kts 186°
2026-04-16 13:44 42.54990 -1.71592 37167 ft 437 kts 186°
2026-04-16 13:44 42.48913 -1.72036 37178 ft 437 kts 186°
2026-04-16 13:45 42.42870 -1.72486 37164 ft 437 kts 186°
2026-04-16 13:45 42.36768 -1.72942 37160 ft 438 kts 186°
2026-04-16 13:46 42.30674 -1.73395 37165 ft 438 kts 186°
2026-04-16 13:46 42.24572 -1.73849 37165 ft 439 kts 186°
2026-04-16 13:47 42.18512 -1.74298 37165 ft 439 kts 186°
2026-04-16 13:47 42.12380 -1.74751 37166 ft 440 kts 186°
2026-04-16 13:48 42.06282 -1.75201 37161 ft 441 kts 186°
2026-04-16 13:48 42.00146 -1.75653 37168 ft 441 kts 186°
2026-04-16 13:49 41.94000 -1.76105 37168 ft 442 kts 186°
2026-04-16 13:49 41.87886 -1.76554 37168 ft 442 kts 186°
2026-04-16 13:50 41.81720 -1.77005 37169 ft 443 kts 186°
2026-04-16 13:50 41.75550 -1.77456 37168 ft 444 kts 186°
2026-04-16 13:51 41.69400 -1.77905 37172 ft 445 kts 186°
2026-04-16 13:51 41.63206 -1.78356 37170 ft 445 kts 186°
2026-04-16 13:52 41.57027 -1.78804 37170 ft 446 kts 186°
2026-04-16 13:52 41.51870 -1.79178 37175 ft 446 kts 186°
2026-04-16 13:53 41.45648 -1.79630 37166 ft 447 kts 186°
2026-04-16 13:53 41.39471 -1.80076 37167 ft 447 kts 186°
2026-04-16 13:54 41.33230 -1.80526 37167 ft 447 kts 186°
2026-04-16 13:54 41.27059 -1.80971 37169 ft 447 kts 186°
2026-04-16 13:55 41.20832 -1.81418 37173 ft 447 kts 186°
2026-04-16 13:55 41.14648 -1.81862 37174 ft 447 kts 186°
2026-04-16 13:56 41.08413 -1.82309 37172 ft 448 kts 186°
2026-04-16 13:56 41.02181 -1.82754 37181 ft 448 kts 186°
2026-04-16 13:57 40.95989 -1.83196 37186 ft 448 kts 186°
2026-04-16 13:57 40.89743 -1.83640 37186 ft 449 kts 186°
2026-04-16 13:58 40.80386 -1.84305 37198 ft 450 kts 186°
2026-04-16 13:58 40.74126 -1.84749 37195 ft 451 kts 186°
2026-04-16 13:59 40.67872 -1.85191 37203 ft 452 kts 186°
2026-04-16 13:59 40.61573 -1.85636 37215 ft 453 kts 187°
2026-04-16 14:00 40.55272 -1.86080 37208 ft 454 kts 187°
2026-04-16 14:00 40.48946 -1.86525 37217 ft 455 kts 187°
2026-04-16 14:01 40.42663 -1.86966 37207 ft 455 kts 187°
2026-04-16 14:01 40.36319 -1.87409 37221 ft 455 kts 187°
2026-04-16 14:02 40.30035 -1.87849 37233 ft 455 kts 187°
2026-04-16 14:02 40.23678 -1.88293 37223 ft 457 kts 187°
2026-04-16 14:03 40.17355 -1.88734 37217 ft 457 kts 187°
2026-04-16 14:03 40.10997 -1.89176 37216 ft 457 kts 187°
2026-04-16 14:04 40.04622 -1.89618 37219 ft 457 kts 187°
2026-04-16 14:04 39.98259 -1.90058 37210 ft 457 kts 187°
2026-04-16 14:05 39.91941 -1.90495 37220 ft 457 kts 187°
2026-04-16 14:05 39.85577 -1.90934 37222 ft 457 kts 187°
2026-04-16 14:06 39.79229 -1.91372 37202 ft 457 kts 187°
2026-04-16 14:06 39.72851 -1.91810 37208 ft 457 kts 187°
2026-04-16 14:07 39.66534 -1.92244 37213 ft 457 kts 187°
2026-04-16 14:07 39.60168 -1.92680 37212 ft 458 kts 187°
2026-04-16 14:08 39.53803 -1.93116 37209 ft 458 kts 187°
2026-04-16 14:08 39.47453 -1.93550 37216 ft 459 kts 187°
2026-04-16 14:09 39.41061 -1.93985 37211 ft 459 kts 188°
2026-04-16 14:09 39.34692 -1.94416 37198 ft 455 kts 188°
2026-04-16 14:10 39.28399 -1.94841 37174 ft 446 kts 188°
2026-04-16 14:10 39.22278 -1.95251 36671 ft 442 kts 188°
2026-04-16 14:11 39.19242 -1.95459 36339 ft 437 kts 188°
2026-04-16 14:11 39.16203 -1.95665 35843 ft 437 kts 187°
2026-04-16 14:11 39.13174 -1.95871 35498 ft 433 kts 187°
2026-04-16 14:11 39.10160 -1.96074 35103 ft 431 kts 187°
2026-04-16 14:12 39.07162 -1.96277 34731 ft 429 kts 187°
2026-04-16 14:12 39.04225 -1.96475 34355 ft 427 kts 187°
2026-04-16 14:12 39.01261 -1.96675 33940 ft 425 kts 186°
2026-04-16 14:12 38.98314 -1.96874 33526 ft 422 kts 186°
2026-04-16 14:13 38.95382 -1.97070 33138 ft 419 kts 186°
2026-04-16 14:13 38.92485 -1.97265 32764 ft 416 kts 186°
2026-04-16 14:13 38.89594 -1.97459 32392 ft 413 kts 186°
2026-04-16 14:13 38.86733 -1.97651 32035 ft 410 kts 186°
2026-04-16 14:14 38.83891 -1.97841 31672 ft 407 kts 186°
2026-04-16 14:14 38.81064 -1.98031 31314 ft 404 kts 185°
2026-04-16 14:14 38.78297 -1.98216 30965 ft 402 kts 185°
2026-04-16 14:14 38.75503 -1.98403 30621 ft 403 kts 185°
2026-04-16 14:15 38.72677 -1.98593 30269 ft 404 kts 185°
2026-04-16 14:15 38.69909 -1.98779 29841 ft 402 kts 185°
2026-04-16 14:15 38.67125 -1.98964 29461 ft 398 kts 185°
2026-04-16 14:15 38.64363 -1.99148 29083 ft 394 kts 185°
2026-04-16 14:16 38.61631 -1.99330 28719 ft 391 kts 185°
2026-04-16 14:16 38.58926 -1.99509 28329 ft 388 kts 185°
2026-04-16 14:16 38.56239 -1.99687 27988 ft 384 kts 185°
2026-04-16 14:16 38.53608 -1.99862 27617 ft 382 kts 185°
2026-04-16 14:17 38.50949 -2.00038 27250 ft 379 kts 185°
2026-04-16 14:17 38.48318 -2.00213 26894 ft 377 kts 184°
2026-04-16 14:17 38.45731 -2.00385 26545 ft 374 kts 184°
2026-04-16 14:17 38.43138 -2.00557 26199 ft 372 kts 184°
2026-04-16 14:18 38.40551 -2.00728 25846 ft 370 kts 184°
2026-04-16 14:18 38.37980 -2.00898 25496 ft 369 kts 184°
2026-04-16 14:18 38.35417 -2.01068 25146 ft 367 kts 184°
2026-04-16 14:18 38.32864 -2.01237 24807 ft 365 kts 184°
2026-04-16 14:19 38.30357 -2.01403 24462 ft 364 kts 184°
2026-04-16 14:19 38.27825 -2.01570 24123 ft 363 kts 184°
2026-04-16 14:19 38.25297 -2.01736 23766 ft 362 kts 183°
2026-04-16 14:19 38.22777 -2.01903 23362 ft 361 kts 183°
2026-04-16 14:20 38.20270 -2.02067 22983 ft 359 kts 183°
2026-04-16 14:20 38.17812 -2.02229 22636 ft 357 kts 183°
2026-04-16 14:20 38.15336 -2.02391 22285 ft 355 kts 183°
2026-04-16 14:20 38.12861 -2.02554 21942 ft 353 kts 183°
2026-04-16 14:21 38.10412 -2.02714 21561 ft 352 kts 183°
2026-04-16 14:21 38.07976 -2.02875 21121 ft 354 kts 183°
2026-04-16 14:21 38.05511 -2.03036 20771 ft 352 kts 183°
2026-04-16 14:21 38.03064 -2.03196 20422 ft 351 kts 183°
2026-04-16 14:22 38.00631 -2.03356 20078 ft 349 kts 183°
2026-04-16 14:22 37.98232 -2.03513 19750 ft 348 kts 183°
2026-04-16 14:22 37.95821 -2.03671 19413 ft 347 kts 183°
2026-04-16 14:22 37.93404 -2.03829 19082 ft 346 kts 183°
2026-04-16 14:23 37.91001 -2.03984 18753 ft 345 kts 182°
2026-04-16 14:23 37.88626 -2.04093 18636 ft 336 kts 182°
2026-04-16 14:23 37.86343 -2.04171 18353 ft 328 kts 181°
2026-04-16 14:23 37.84061 -2.04243 17845 ft 327 kts 181°
2026-04-16 14:24 37.81782 -2.04315 17298 ft 328 kts 181°
2026-04-16 14:24 37.79486 -2.04391 16802 ft 329 kts 181°
2026-04-16 14:24 37.77203 -2.04467 16432 ft 326 kts 181°
2026-04-16 14:24 37.74948 -2.04544 16013 ft 324 kts 181°
2026-04-16 14:25 37.72717 -2.04621 15581 ft 323 kts 181°
2026-04-16 14:25 37.70472 -2.04698 15187 ft 321 kts 181°
2026-04-16 14:25 37.68236 -2.04776 14779 ft 319 kts 181°
2026-04-16 14:25 37.66018 -2.04856 14374 ft 318 kts 181°
2026-04-16 14:26 37.63831 -2.04933 13978 ft 317 kts 181°
2026-04-16 14:26 37.61623 -2.05010 13546 ft 317 kts 181°
2026-04-16 14:26 37.59415 -2.05086 13202 ft 317 kts 181°
2026-04-16 14:26 37.57205 -2.05165 12864 ft 317 kts 181°
2026-04-16 14:27 37.54999 -2.05240 12536 ft 317 kts 182°
2026-04-16 14:27 37.52793 -2.05318 12222 ft 316 kts 182°
2026-04-16 14:27 37.50590 -2.05398 11902 ft 315 kts 182°
2026-04-16 14:27 37.48431 -2.05478 11665 ft 312 kts 182°
2026-04-16 14:28 37.46267 -2.05554 11383 ft 310 kts 182°
2026-04-16 14:28 37.44117 -2.05629 11085 ft 309 kts 182°
2026-04-16 14:28 37.41967 -2.05704 10782 ft 308 kts 181°
2026-04-16 14:28 37.39821 -2.05779 10473 ft 307 kts 182°
2026-04-16 14:29 37.37689 -2.05854 10172 ft 306 kts 182°
2026-04-16 14:29 37.35582 -2.05928 10013 ft 299 kts 182°
2026-04-16 14:29 37.33491 -2.06003 9661 ft 300 kts 182°
2026-04-16 14:29 37.31438 -2.06074 9365 ft 298 kts 182°
2026-04-16 14:30 37.29398 -2.06145 9061 ft 297 kts 182°
2026-04-16 14:30 37.27328 -2.06217 8754 ft 296 kts 182°
2026-04-16 14:30 37.25280 -2.06289 8452 ft 291 kts 182°
2026-04-16 14:30 37.23261 -2.06360 8142 ft 286 kts 182°
2026-04-16 14:31 37.21317 -2.06428 7872 ft 281 kts 182°
2026-04-16 14:31 37.19357 -2.06497 7598 ft 281 kts 182°
2026-04-16 14:31 37.17396 -2.06565 7298 ft 281 kts 182°
2026-04-16 14:31 37.15444 -2.06634 7019 ft 280 kts 182°
2026-04-16 14:32 37.13502 -2.06702 6741 ft 279 kts 181°
2026-04-16 14:32 37.11559 -2.06770 6423 ft 278 kts 181°
2026-04-16 14:32 37.09651 -2.06836 6143 ft 277 kts 181°
2026-04-16 14:32 37.07718 -2.06903 5848 ft 276 kts 181°
2026-04-16 14:33 37.05799 -2.06970 5547 ft 272 kts 181°
2026-04-16 14:33 37.04570 -2.07013 5358 ft 268 kts 181°
2026-04-16 14:33 37.02555 -2.07083 5158 ft 254 kts 181°
2026-04-16 14:33 37.00809 -2.07144 4922 ft 246 kts 181°
2026-04-16 14:34 36.99146 -2.07202 4729 ft 237 kts 181°
2026-04-16 14:34 36.97534 -2.07259 4598 ft 226 kts 181°
2026-04-16 14:34 36.95989 -2.07312 4495 ft 220 kts 181°
2026-04-16 14:34 36.94467 -2.07365 4414 ft 217 kts 181°
2026-04-16 14:35 36.92988 -2.07494 4284 ft 209 kts 195°
2026-04-16 14:35 36.91778 -2.08423 4091 ft 203 kts 226°
2026-04-16 14:35 36.91049 -2.09896 3876 ft 198 kts 249°
2026-04-16 14:35 36.90753 -2.10978 3757 ft 200 kts 252°
2026-04-16 14:36 36.90364 -2.12641 3586 ft 197 kts 255°
2026-04-16 14:36 36.89849 -2.14847 3360 ft 202 kts 252°
2026-04-16 14:36 36.89573 -2.15981 3199 ft 203 kts 253°
2026-04-16 14:36 36.89163 -2.17656 2913 ft 202 kts 252°
2026-04-16 14:37 36.88745 -2.19327 2688 ft 202 kts 251°
2026-04-16 14:37 36.88328 -2.21014 2384 ft 205 kts 252°
2026-04-16 14:37 36.87914 -2.22713 2112 ft 203 kts 252°
2026-04-16 14:37 36.87502 -2.24375 1853 ft 201 kts 251°
2026-04-16 14:38 36.87099 -2.26014 1602 ft 192 kts 252°
2026-04-16 14:38 36.86717 -2.27561 1348 ft 180 kts 252°
2026-04-16 14:38 36.86361 -2.29009 1113 ft 168 kts 251°
2026-04-16 14:38 36.86028 -2.30358 905 ft 155 kts 253°
2026-04-16 14:39 36.85720 -2.31613 697 ft 149 kts 252°
2026-04-16 14:39 36.85422 -2.32820 460 ft 151 kts 251°
2026-04-16 14:39 36.85110 -2.34086 304 ft 154 kts 252°
2026-04-16 14:39 36.84800 -2.35355 112 ft 151 kts 251°
2026-04-16 14:40 36.84516 -2.36517 57 ft 120 kts 253°
2026-04-16 14:40 36.84335 -2.37257 57 ft 60 kts 253°
2026-04-16 14:40 36.84234 -2.37664 55 ft 41 kts 252°
2026-04-16 14:40 36.84196 -2.37952 58 ft 26 kts 273°
2026-04-16 14:41 36.84217 -2.38131 60 ft 12 kts 280°
2026-04-16 14:41 36.84251 -2.38197 61 ft 9 kts 345°
2026-04-16 14:41 36.84292 -2.38140 63 ft 13 kts 71°
2026-04-16 14:41 36.84323 -2.38020 57 ft 15 kts 73°
2026-04-16 14:42 36.84351 -2.37900 61 ft 14 kts 73°
2026-04-16 14:42 36.84378 -2.37788 64 ft 13 kts 73°
2026-04-16 14:42 36.84405 -2.37681 60 ft 13 kts 72°
2026-04-16 14:42 36.84430 -2.37576 63 ft 12 kts 74°
2026-04-16 14:43 36.84454 -2.37475 61 ft 12 kts 73°
2026-04-16 14:43 36.84480 -2.37379 61 ft 8 kts 67°
2026-04-16 14:43 36.84483 -2.37375 59 ft 0 kts 52°
2026-04-16 14:43 36.84503 -2.37375 58 ft 8 kts 356°
2026-04-16 14:44 36.84557 -2.37357 66 ft 9 kts 54°
2026-04-16 14:44 36.84578 -2.37288 66 ft 8 kts 72°
2026-04-16 14:44 36.84601 -2.37264 65 ft 4 kts 349°
2026-04-16 14:44 36.84627 -2.37272 59 ft 4 kts 343°
2026-04-16 14:45 36.84653 -2.37283 68 ft 4 kts 342°
2026-04-16 14:45 36.84660 -2.37261 65 ft 3 kts 121°
2026-04-16 14:45 36.84655 -2.37250 64 ft 0 kts 120°